Location: Austin
(30.3000°N, 97.7500°W)
Time: 22:32:42
(UTC-06:00)

Cosmos 1937 Rocket - Pass Details

Date: 03 December 2025
Orbit: 743 x 774 km, 74.0° (Epoch: 07 December)

Event Time Altitude Azimuth Distance (km) Brightness Sun altitude
Rises 06:42:02 0° 351° (N) 3,185 6.4 -6.7°
Reaches altitude 10° 06:44:28 10° 357° (N) 2,257 5.7 -6.2°
Maximum altitude 06:49:25 49° 71° (ENE) 959 4.5 -5.2°
Drops below altitude 10° 06:54:20 10° 146° (SE) 2,251 7.0 -4.3°
Sets 06:56:45 0° 152° (SSE) 3,175 7.6 -3.8°
